This demonstration page uses our WeatherBlox Daily Observations layout. Learn more.

Left ArrowRight Arrow

41.55636, -103.73856

Hourly Observations for October 2, 2018

Temp ( °F °C ) Dew Point ( °F °C ) Humidity (%) Winds ( mph kmh ) Pressure ( in mb ) Visibility ( mi km ) Precip ( " mm )
12:58 am 00:58 Clear 49 9.5 43 6.1 80 80 SW 7 11 29.98 1015 10 16 N/A
1:58 am 01:58 Clear 51 10.3 44 6.5 78 78 W 9 15 29.97 1015 10 16 N/A
2:58 am 02:58 Clear 48 8.7 43 5.9 83 83 W 6 9 29.95 1014 10 16 N/A
3:58 am 03:58 Clear 49 9.7 42 5.8 77 77 WSW 5 7 29.95 1014 10 16 N/A
4:58 am 04:58 Clear 50 10.2 43 6 75 75 W 7 11 29.95 1014 10 16 N/A
5:58 am 05:58 Clear 49 9.6 42 5.3 75 75 W 8 13 29.96 1015 10 16 N/A
6:58 am 06:58 Sunny 50 10.2 42 5.6 73 73 WNW 8 13 29.97 1015 10 16 N/A
7:58 am 07:58 Sunny 53 11.6 44 6.6 72 72 W 7 11 29.96 1015 10 16 N/A
8:58 am 08:58 Sunny 61 16.1 46 7.5 57 57 N N/A 29.94 1014 10 16 N/A
9:58 am 09:58 Sunny 71 21.8 44 6.8 38 38 W 10 17 29.92 1013 10 16 N/A
10:58 am 10:58 Sunny 74 23.5 42 5.4 31 31 WSW 15 24 29.90 1013 10 16 N/A
11:58 am 11:58 Sunny 76 24.2 42 5.3 30 30 SW 17 28 29.89 1012 10 16 N/A
12:58 pm 12:58 Sunny 79 26.2 41 5 26 26 WSW 14 22 29.86 1011 10 16 N/A
1:58 pm 13:58 Sunny 79 26 39 4.1 24 24 WSW 15 24 29.83 1010 10 16 N/A
2:58 pm 14:58 Sunny 80 26.5 38 3.4 23 23 SW 15 24 29.79 1009 10 16 N/A
3:58 pm 15:58 Sunny 79 26 40 4.2 25 25 SW 12 19 29.78 1008 10 16 N/A
4:58 pm 16:58 Sunny 77 25.2 39 3.8 25 25 S 13 20 29.76 1008 10 16 N/A
5:58 pm 17:58 Mostly Sunny 77 25 40 4.3 26 26 SSW 14 22 29.77 1008 10 16 N/A
6:58 pm 18:58 Mostly Cloudy 68 20 41 5.1 38 38 SSW 7 11 29.78 1008 10 16 N/A
7:58 pm 19:58 Mostly Cloudy 64 18 42 5.6 44 44 SSW 9 15 29.78 1008 10 16 N/A
8:58 pm 20:58 Mostly Cloudy 65 18.2 43 6.2 46 46 SW 6 9 29.75 1007 10 16 N/A
9:58 pm 21:58 Mostly Cloudy 64 17.5 45 7.1 51 51 SW 7 11 29.70 1006 10 16 N/A
10:58 pm 22:58 Mostly Cloudy 61 16.1 45 7.4 57 57 W 7 11 29.69 1005 10 16 N/A
11:58 pm 23:58 Clear 58 14.5 44 6.9 61 61 W 8 13 29.66 1004 10 16 N/A

Powered by AerisWeather